Location: Waco, TX
(31.5480°N, 97.1670°W)
Time: 11:34:48
(UTC-05:00)

ISS - Pass Details

Date: 20 September 2018
Orbit: 403 x 408 km, 51.6° (Epoch: 26 September)

Event Time Altitude Azimuth Distance (km) Brightness Sun altitude
Rises 06:13:08 0° 293° (WNW) 2,316 - -14.1°
Reaches altitude 10° 06:16:00 10° 265° (W) 1,452 - -13.5°
Maximum altitude 06:17:41 13° 234° (SW) 1,259 - -13.1°
Exits shadow 06:18:57 11° 209° (SSW) 1,370 -1.5 -12.9°
Drops below altitude 10° 06:19:21 10° 203° (SSW) 1,446 -1.3 -12.8°
Sets 06:22:13 0° 175° (S) 2,298 0.0 -12.2°
